STARLINK-1714, 46562

Orbit data source: Space-Track

STARLINK-1714, 46562 is a payload satellite owned by SpaceX/Seattle (US) in LEO that was launched on Tue, 06 Oct 2020 UTC via an FALCON 9 launch vehicle from the Air Force Eastern Test Range (AFETR). Payload-class satellites include a variety of spacecraft equipped with specific instruments for various scientific and technological missions. These include communications satellites like Starlink; space stations such as the ISS; scientific satellites like the Hubble; Earth observation satellites from companies like Planet Labs, Umbra, and HawkEye 360; GPS; miniature CubeSats for education and research; and military/defense satellites.

Loading next visibility...
Identifier
46562, 2020-070AG
Orbit
LEO
Country
Flag of USUS
Related business
Manufacturer
SpaceX/Seattle
Mission
Partially operational Commercial Communications
Bus & Motor
STARLINK, Unknown motor
Mass
260 kg wet, ~248 kg dry
Launch date (UTC)
2020-10-06 (6 years ago)
Launch vehicle
FALCON 9
Launch site
Air Force Eastern Test Range (AFETR)
Object type
Payload
Rocket body
Debris
Shape & HBR
Box + 1 Pan, 10.1 m
Radar Cross Section
13.562 m², Large (>1 m²)

Expand to show TLE details & history
Last TLE update: 4 hours ago

TLE from 4 hours ago
0 STARLINK-1714
1 46562U 20070AG  26124.50002315  .01249642  00000-0  11446-1 0  9998
2 46562  53.0393 205.7154 0008511 350.6529 219.4583 15.64394668  5972
Epoch: 2026-05-04T12:00Z
TLE epoch observation values (Epoch: 2026-05-04T12:00:02.000Z)
Latitude
-23.78171°
Longitude
2.57182°
Altitude
386.25 km
Speed
7.676 km/s
True Right ascension
02h 59m 52s
True Declination
-23° 38' 53"
Sunlit
Object was in daylight at epoch
Visualization orbit readout
Latitude
Unknown
Longitude
Unknown
Altitude
Unknown
Speed
Unknown
Apparent Right ascension
Unknown
Apparent Declination
Unknown
Sunlit
N/A
Visualization observer readout
Local Sidereal Time
00:12:42
Azimuth
Unknown
Elevation
Unknown
Doppler factor
Unknown
Orbital elements
Apogee altitude
381.008 km
Perigee altitude
369.512 km
Semi-major axis
6,753.397 km
Eccentricity
0.00085
Inclination
53.0393°
RAAN
205.7154°
Arg. of periapsis
350.6529°
True anomaly
219.39637°
Mean anomaly
219.4583°
Eccentric anomaly
219.42733°
Mean motion
3.91075 °/min
Orbital period
92.05 mins
BSTAR
0.011446
Loading maneuver chart data...
Computing Atmospheric mass density...
Loading historical data...
Loading historical data...
Loading historical data...
Loading historical data...
Loading historical data...
Loading historical data...
Loading historical data...

Documentation

Showing up to 5 results
|